Time,TemperatureF,DewpointF,PressureIn,WindDirection,WindDirectionDegrees,WindSpeedMPH,WindSpeedGustMPH,Humidity,HourlyPrecipIn,Conditions,Clouds,dailyrainin,SolarRadiationWatts/m^2,SoftwareType,DateUTC
2013-09-26 00:00:00,65.3,64.1,29.83,ENE,71,0.0,0.0,96,0.00,RA,RA,0.00,0.0,WeatherDisplay:10.37,2013-09-26 05:00:00,
2013-09-26 00:10:00,65.0,63.9,29.82,ENE,71,0.0,0.0,96,0.00,CLR,CLR,0.00,0.0,WeatherDisplay:10.37,2013-09-26 05:10:00,
2013-09-26 00:20:00,65.3,64.1,29.83,ENE,71,0.0,0.0,96,0.00,CLR,CLR,0.00,0.0,WeatherDisplay:10.37,2013-09-26 05:20:00,
2013-09-26 00:30:00,65.5,64.3,29.83,ENE,71,0.0,0.0,96,0.00,CLR,CLR,0.00,0.0,WeatherDisplay:10.37,2013-09-26 05:30:00,
2013-09-26 00:40:00,65.3,64.1,29.82,ENE,70,0.0,0.0,96,0.00,CLR,CLR,0.00,0.0,WeatherDisplay:10.37,2013-09-26 05:40:00,
2013-09-26 00:50:00,64.8,63.6,29.82,ENE,70,0.0,1.0,96,0.00,CLR,CLR,0.00,0.0,WeatherDisplay:10.37,2013-09-26 05:50:00,
2013-09-26 01:00:00,64.4,63.2,29.83,ENE,70,0.0,0.0,96,0.00,CLR,CLR,0.00,0.0,WeatherDisplay:10.37,2013-09-26 06:00:00,
2013-09-26 01:10:00,64.6,63.7,29.82,ENE,71,0.0,0.0,97,0.00,CLR,CLR,0.00,0.0,WeatherDisplay:10.37,2013-09-26 06:10:00,
2013-09-26 01:20:00,64.8,63.9,29.82,ENE,71,0.0,1.0,97,0.00,CLR,CLR,0.00,0.0,WeatherDisplay:10.37,2013-09-26 06:20:00,
2013-09-26 01:30:00,64.9,64.0,29.83,ENE,70,0.0,0.0,97,0.00,CLR,CLR,0.00,0.0,WeatherDisplay:10.37,2013-09-26 06:30:00,
2013-09-26 01:40:00,64.2,63.0,29.83,ENE,70,0.0,0.0,96,0.00,CLR,CLR,0.00,0.0,WeatherDisplay:10.37,2013-09-26 06:40:00,
2013-09-26 01:50:00,64.1,63.2,29.83,ENE,71,0.0,0.0,97,0.00,CLR,CLR,0.00,0.0,WeatherDisplay:10.37,2013-09-26 06:50:00,
2013-09-26 02:00:00,64.0,63.1,29.83,ENE,71,0.0,0.0,97,0.00,CLR,CLR,0.00,0.0,WeatherDisplay:10.37,2013-09-26 07:00:00,
2013-09-26 02:10:00,64.2,63.3,29.83,ENE,71,0.0,0.0,97,0.00,CLR,CLR,0.00,0.0,WeatherDisplay:10.37,2013-09-26 07:10:00,
2013-09-26 02:20:00,63.8,63.0,29.83,ENE,71,0.0,0.0,97,0.00,CLR,CLR,0.00,0.0,WeatherDisplay:10.37,2013-09-26 07:20:00,
2013-09-26 02:30:00,63.6,62.7,29.83,ENE,70,0.0,0.0,97,0.00,CLR,CLR,0.00,0.0,WeatherDisplay:10.37,2013-09-26 07:30:00,
2013-09-26 02:40:00,63.2,62.3,29.83,ENE,70,0.0,0.0,97,0.00,CLR,CLR,0.00,0.0,WeatherDisplay:10.37,2013-09-26 07:40:00,
2013-09-26 03:00:00,62.8,61.9,29.83,ENE,70,0.0,0.0,97,0.00,CLR,CLR,0.00,0.0,WeatherDisplay:10.37,2013-09-26 08:00:00,
2013-09-26 03:10:00,62.4,61.5,29.83,ENE,71,0.0,0.0,97,0.00,CLR,CLR,0.00,0.0,WeatherDisplay:10.37,2013-09-26 08:10:00,
2013-09-26 03:20:00,62.4,61.5,29.84,ENE,70,0.0,0.0,97,0.00,CLR,CLR,0.00,0.0,WeatherDisplay:10.37,2013-09-26 08:20:00,
2013-09-26 03:30:00,63.2,62.3,29.84,ENE,70,0.0,0.0,97,0.00,CLR,CLR,0.00,0.0,WeatherDisplay:10.37,2013-09-26 08:30:00,
2013-09-26 03:40:00,63.0,62.1,29.84,ENE,70,0.0,0.0,97,0.00,CLR,CLR,0.00,0.0,WeatherDisplay:10.37,2013-09-26 08:40:00,
2013-09-26 03:50:00,62.6,61.8,29.85,ENE,71,0.0,0.0,97,0.00,CLR,CLR,0.00,0.0,WeatherDisplay:10.37,2013-09-26 08:50:00,
2013-09-26 04:00:00,62.3,61.4,29.85,ENE,71,0.0,0.0,97,0.00,CLR,CLR,0.00,0.0,WeatherDisplay:10.37,2013-09-26 09:00:00,
2013-09-26 04:10:00,62.8,62.0,29.85,ENE,70,0.0,0.0,97,0.00,CLR,CLR,0.00,0.0,WeatherDisplay:10.37,2013-09-26 09:10:00,
2013-09-26 04:20:00,63.1,62.2,29.85,ENE,70,0.0,0.0,97,0.00,CLR,CLR,0.00,0.0,WeatherDisplay:10.37,2013-09-26 09:20:00,
2013-09-26 04:30:00,62.8,61.9,29.85,ENE,70,0.0,0.0,97,0.00,CLR,CLR,0.00,0.0,WeatherDisplay:10.37,2013-09-26 09:30:00,
2013-09-26 04:40:00,62.2,61.3,29.85,ENE,70,0.0,0.0,97,0.01,RA,RA,0.01,0.0,WeatherDisplay:10.37,2013-09-26 09:40:00,
2013-09-26 04:50:00,62.3,61.4,29.86,ENE,70,0.0,0.0,97,0.00,CLR,CLR,0.01,0.0,WeatherDisplay:10.37,2013-09-26 09:50:00,
2013-09-26 05:00:00,62.8,61.9,29.86,ENE,71,0.0,0.0,97,0.00,CLR,CLR,0.01,0.0,WeatherDisplay:10.37,2013-09-26 10:00:00,
2013-09-26 05:10:00,62.8,61.9,29.86,ENE,70,0.0,0.0,97,0.00,CLR,CLR,0.01,0.0,WeatherDisplay:10.37,2013-09-26 10:10:00,
2013-09-26 05:20:00,62.2,61.3,29.87,ENE,70,0.0,0.0,97,0.00,CLR,CLR,0.01,0.0,WeatherDisplay:10.37,2013-09-26 10:20:00,
2013-09-26 05:30:00,61.2,60.3,29.87,ENE,70,0.0,0.0,97,0.00,CLR,CLR,0.01,0.0,WeatherDisplay:10.37,2013-09-26 10:30:00,
2013-09-26 05:40:00,60.6,59.7,29.87,ENE,71,0.0,0.0,97,0.00,CLR,CLR,0.01,0.0,WeatherDisplay:10.37,2013-09-26 10:40:00,
2013-09-26 05:50:00,60.5,59.6,29.88,ENE,70,0.0,0.0,97,0.00,CLR,CLR,0.01,0.0,WeatherDisplay:10.37,2013-09-26 10:50:00,
2013-09-26 06:00:00,60.4,59.5,29.88,ENE,71,0.0,0.0,97,0.00,CLR,CLR,0.01,0.0,WeatherDisplay:10.37,2013-09-26 11:00:00,
2013-09-26 06:10:00,60.9,60.0,29.89,ENE,71,0.0,0.0,97,0.00,CLR,CLR,0.01,0.0,WeatherDisplay:10.37,2013-09-26 11:10:00,
2013-09-26 06:20:00,60.5,59.6,29.89,ENE,70,0.0,0.0,97,0.00,CLR,CLR,0.01,0.0,WeatherDisplay:10.37,2013-09-26 11:20:00,
2013-09-26 06:30:00,60.4,59.6,29.89,ENE,70,0.0,0.0,97,0.00,CLR,CLR,0.01,0.0,WeatherDisplay:10.37,2013-09-26 11:30:00,
2013-09-26 06:40:00,60.0,59.1,29.90,ENE,70,0.0,0.0,97,0.00,CLR,CLR,0.01,0.0,WeatherDisplay:10.37,2013-09-26 11:40:00,
2013-09-26 06:50:00,59.7,58.8,29.91,ENE,70,0.0,0.0,97,0.00,CLR,CLR,0.01,0.0,WeatherDisplay:10.37,2013-09-26 11:50:00,
2013-09-26 07:00:00,59.5,58.6,29.91,ENE,70,0.0,0.0,97,0.00,CLR,CLR,0.01,0.0,WeatherDisplay:10.37,2013-09-26 12:00:00,
2013-09-26 07:10:00,59.8,59.2,29.92,ENE,70,0.0,0.0,98,0.00,CLR,CLR,0.01,0.0,WeatherDisplay:10.37,2013-09-26 12:10:00,
2013-09-26 07:20:00,60.0,59.4,29.92,ENE,71,0.0,0.0,98,0.00,CLR,CLR,0.01,0.0,WeatherDisplay:10.37,2013-09-26 12:20:00,
2013-09-26 07:30:00,60.8,59.9,29.92,ENE,70,0.0,0.0,97,0.00,CLR,CLR,0.01,0.0,WeatherDisplay:10.37,2013-09-26 12:30:00,
2013-09-26 07:40:00,61.4,60.6,29.92,ENE,70,0.0,0.0,97,0.00,CLR,CLR,0.01,0.0,WeatherDisplay:10.37,2013-09-26 12:40:00,
2013-09-26 07:50:00,62.3,61.4,29.93,ENE,70,0.0,0.0,97,0.00,CLR,CLR,0.01,0.0,WeatherDisplay:10.37,2013-09-26 12:50:00,
2013-09-26 08:00:00,63.0,62.1,29.93,ENE,70,0.0,0.0,97,0.00,CLR,CLR,0.01,0.0,WeatherDisplay:10.37,2013-09-26 13:00:00,
2013-09-26 08:10:00,65.6,65.0,29.93,East,88,0.0,2.0,98,0.00,CLR,CLR,0.01,0.0,WeatherDisplay:10.37,2013-09-26 13:10:00,
2013-09-26 08:20:00,67.4,66.8,29.93,ESE,107,0.0,1.0,98,0.00,OVC,OVC,0.01,0.0,WeatherDisplay:10.37,2013-09-26 13:20:00,
2013-09-26 08:30:00,68.4,67.2,29.94,NE,56,1.0,2.0,96,0.00,OVC,OVC,0.01,0.0,WeatherDisplay:10.37,2013-09-26 13:30:00,
2013-09-26 08:40:00,69.2,67.4,29.94,East,95,0.0,3.0,94,0.00,CLR,CLR,0.01,0.0,WeatherDisplay:10.37,2013-09-26 13:40:00,
2013-09-26 08:50:00,70.6,67.9,29.94,East,101,2.0,4.0,91,0.00,CLR,CLR,0.01,0.0,WeatherDisplay:10.37,2013-09-26 13:50:00,
2013-09-26 09:00:00,72.0,68.9,29.94,East,88,0.0,2.0,90,0.00,CLR,CLR,0.01,0.0,WeatherDisplay:10.37,2013-09-26 14:00:00,
2013-09-26 09:10:00,72.0,67.9,29.94,ESE,120,2.0,5.0,87,0.00,CLR,CLR,0.01,0.0,WeatherDisplay:10.37,2013-09-26 14:10:00,
2013-09-26 09:20:00,73.1,68.3,29.94,East,83,1.0,4.0,85,0.00,CLR,CLR,0.01,0.0,WeatherDisplay:10.37,2013-09-26 14:20:00,
2013-09-26 09:30:00,72.7,68.3,29.95,NE,51,1.0,5.0,86,0.00,CLR,CLR,0.01,0.0,WeatherDisplay:10.37,2013-09-26 14:30:00,
2013-09-26 09:40:00,73.2,68.1,29.95,NE,53,1.0,5.0,84,0.00,CLR,CLR,0.01,0.0,WeatherDisplay:10.37,2013-09-26 14:40:00,
2013-09-26 09:50:00,74.3,68.4,29.95,NE,56,3.0,6.0,82,0.00,CLR,CLR,0.01,0.0,WeatherDisplay:10.37,2013-09-26 14:50:00,
2013-09-26 10:00:00,74.8,68.3,29.95,ENE,66,3.0,6.0,80,0.00,CLR,CLR,0.01,0.0,WeatherDisplay:10.37,2013-09-26 15:00:00,
2013-09-26 10:10:00,75.0,68.1,29.95,NE,50,3.0,7.0,79,0.00,CLR,CLR,0.01,0.0,WeatherDisplay:10.37,2013-09-26 15:10:00,
2013-09-26 10:20:00,75.9,67.8,29.95,NE,54,2.0,6.0,76,0.00,CLR,CLR,0.01,0.0,WeatherDisplay:10.37,2013-09-26 15:20:00,
2013-09-26 10:30:00,77.1,68.5,29.95,ENE,72,3.0,7.0,75,0.00,CLR,CLR,0.01,0.0,WeatherDisplay:10.37,2013-09-26 15:30:00,
2013-09-26 10:40:00,77.9,68.1,29.95,East,82,2.0,6.0,72,0.00,FEW,FEW,0.01,0.0,WeatherDisplay:10.37,2013-09-26 15:40:00,
2013-09-26 10:50:00,78.5,67.9,29.95,ESE,114,5.0,7.0,70,0.00,FEW,FEW,0.01,0.0,WeatherDisplay:10.37,2013-09-26 15:50:00,
2013-09-26 11:00:00,78.8,67.8,29.95,ESE,107,3.0,8.0,69,0.00,CLR,CLR,0.01,0.0,WeatherDisplay:10.37,2013-09-26 16:00:00,
2013-09-26 11:10:00,80.1,69.1,29.95,East,90,2.0,4.0,69,0.00,CLR,CLR,0.01,0.0,WeatherDisplay:10.37,2013-09-26 16:10:00,
2013-09-26 11:20:00,80.3,68.3,29.95,ENE,58,2.0,6.0,67,0.00,CLR,CLR,0.01,0.0,WeatherDisplay:10.37,2013-09-26 16:20:00,
2013-09-26 11:30:00,80.1,68.2,29.95,ENE,67,3.0,6.0,67,0.00,CLR,CLR,0.01,0.0,WeatherDisplay:10.37,2013-09-26 16:30:00,
2013-09-26 11:40:00,80.6,69.0,29.94,NE,45,1.0,5.0,68,0.00,CLR,CLR,0.01,0.0,WeatherDisplay:10.37,2013-09-26 16:40:00,
2013-09-26 11:50:00,81.8,68.9,29.94,ENE,59,1.0,5.0,65,0.00,CLR,CLR,0.01,0.0,WeatherDisplay:10.37,2013-09-26 16:50:00,
2013-09-26 12:00:00,82.1,67.8,29.94,East,90,1.0,7.0,62,0.00,CLR,CLR,0.01,0.0,WeatherDisplay:10.37,2013-09-26 17:00:00,
2013-09-26 12:10:00,82.3,67.9,29.94,ESE,115,2.0,7.0,62,0.00,CLR,CLR,0.01,0.0,WeatherDisplay:10.37,2013-09-26 17:10:00,
2013-09-26 12:20:00,82.7,67.9,29.94,ENE,70,1.0,8.0,61,0.00,CLR,CLR,0.01,0.0,WeatherDisplay:10.37,2013-09-26 17:20:00,
2013-09-26 12:30:00,83.7,67.8,29.94,ESE,111,1.0,6.0,59,0.00,CLR,CLR,0.01,0.0,WeatherDisplay:10.37,2013-09-26 17:30:00,
2013-09-26 12:40:00,83.2,67.4,29.94,ENE,65,2.0,8.0,59,0.00,CLR,CLR,0.01,0.0,WeatherDisplay:10.37,2013-09-26 17:40:00,
2013-09-26 12:50:00,83.2,67.4,29.94,East,101,1.0,6.0,59,0.00,CLR,CLR,0.01,0.0,WeatherDisplay:10.37,2013-09-26 17:50:00,
2013-09-26 13:00:00,83.6,66.7,29.94,East,99,2.0,7.0,57,0.00,SCT,SCT,0.01,0.0,WeatherDisplay:10.37,2013-09-26 18:00:00,
2013-09-26 13:10:00,84.1,68.2,29.93,East,92,5.0,7.0,59,0.00,SCT,SCT,0.01,0.0,WeatherDisplay:10.37,2013-09-26 18:10:00,
2013-09-26 13:20:00,83.8,68.0,29.93,ENE,74,1.0,10.0,59,0.00,FEW,FEW,0.01,0.0,WeatherDisplay:10.37,2013-09-26 18:20:00,
2013-09-26 13:30:00,85.1,68.1,29.93,ESE,102,2.0,6.0,57,0.00,FEW,FEW,0.01,0.0,WeatherDisplay:10.37,2013-09-26 18:30:00,
2013-09-26 13:40:00,83.9,65.5,29.93,East,95,3.0,7.0,54,0.00,BKN,BKN,0.01,0.0,WeatherDisplay:10.37,2013-09-26 18:40:00,
2013-09-26 13:50:00,85.0,67.0,29.92,ENE,76,2.0,5.0,55,0.00,BKN,BKN,0.01,0.0,WeatherDisplay:10.37,2013-09-26 18:50:00,
2013-09-26 14:00:00,85.6,67.0,29.92,ESE,104,2.0,9.0,54,0.00,BKN,BKN,0.01,0.0,WeatherDisplay:10.37,2013-09-26 19:00:00,
2013-09-26 14:10:00,84.6,65.6,29.92,ENE,78,2.0,6.0,53,0.00,BKN,BKN,0.01,0.0,WeatherDisplay:10.37,2013-09-26 19:10:00,
2013-09-26 14:20:00,84.8,65.8,29.92,ESE,102,2.0,8.0,53,0.00,FEW,FEW,0.01,0.0,WeatherDisplay:10.37,2013-09-26 19:20:00,
2013-09-26 14:30:00,85.3,66.8,29.91,ESE,121,5.0,8.0,54,0.00,FEW,FEW,0.01,0.0,WeatherDisplay:10.37,2013-09-26 19:30:00,
2013-09-26 14:40:00,86.4,68.3,29.91,ENE,71,1.0,5.0,55,0.00,CLR,CLR,0.01,0.0,WeatherDisplay:10.37,2013-09-26 19:40:00,
2013-09-26 14:50:00,84.8,66.3,29.91,ENE,71,2.0,7.0,54,0.00,CLR,CLR,0.01,0.0,WeatherDisplay:10.37,2013-09-26 19:50:00,
2013-09-26 15:00:00,84.5,66.0,29.91,East,87,3.0,5.0,54,0.00,SCT,SCT,0.01,0.0,WeatherDisplay:10.37,2013-09-26 20:00:00,
2013-09-26 15:10:00,85.2,66.7,29.91,ENE,68,3.0,8.0,54,0.00,SCT,SCT,0.01,0.0,WeatherDisplay:10.37,2013-09-26 20:10:00,
2013-09-26 15:20:00,83.8,65.9,29.91,ENE,57,5.0,10.0,55,0.00,BKN,BKN,0.01,0.0,WeatherDisplay:10.37,2013-09-26 20:20:00,
2013-09-26 15:30:00,82.2,65.9,29.91,ENE,57,1.0,8.0,58,0.00,BKN,BKN,0.01,0.0,WeatherDisplay:10.37,2013-09-26 20:30:00,
2013-09-26 15:40:00,83.2,65.9,29.91,East,87,2.0,4.0,56,0.00,SCT,SCT,0.01,0.0,WeatherDisplay:10.37,2013-09-26 20:40:00,
2013-09-26 15:50:00,84.5,66.1,29.91,ESE,111,3.0,6.0,54,0.00,SCT,SCT,0.01,0.0,WeatherDisplay:10.37,2013-09-26 20:50:00,
2013-09-26 16:00:00,85.3,66.2,29.91,ENE,71,3.0,7.0,53,0.00,SCT,SCT,0.01,0.0,WeatherDisplay:10.37,2013-09-26 21:00:00,
2013-09-26 16:10:00,85.4,65.2,29.90,East,85,5.0,12.0,51,0.00,SCT,SCT,0.01,0.0,WeatherDisplay:10.37,2013-09-26 21:10:00,
2013-09-26 16:20:00,84.7,65.6,29.91,ENE,72,1.0,10.0,53,0.00,SCT,SCT,0.01,0.0,WeatherDisplay:10.37,2013-09-26 21:20:00,
2013-09-26 16:30:00,84.3,65.3,29.91,NE,47,5.0,10.0,53,0.00,SCT,SCT,0.01,0.0,WeatherDisplay:10.37,2013-09-26 21:30:00,
2013-09-26 16:40:00,82.9,64.0,29.91,NE,55,1.0,10.0,53,0.00,FEW,FEW,0.01,0.0,WeatherDisplay:10.37,2013-09-26 21:40:00,
2013-09-26 16:50:00,84.1,65.7,29.91,ENE,78,2.0,4.0,54,0.00,FEW,FEW,0.01,0.0,WeatherDisplay:10.37,2013-09-26 21:50:00,
2013-09-26 17:00:00,84.7,66.2,29.91,ESE,104,1.0,4.0,54,0.00,CLR,CLR,0.01,0.0,WeatherDisplay:10.37,2013-09-26 22:00:00,
2013-09-26 17:10:00,84.5,65.5,29.91,East,84,2.0,5.0,53,0.00,CLR,CLR,0.01,0.0,WeatherDisplay:10.37,2013-09-26 22:10:00,
2013-09-26 17:20:00,83.7,65.3,29.91,ESE,118,3.0,9.0,54,0.00,CLR,CLR,0.01,0.0,WeatherDisplay:10.37,2013-09-26 22:20:00,
2013-09-26 17:30:00,83.6,65.2,29.91,East,98,2.0,6.0,54,0.00,CLR,CLR,0.01,0.0,WeatherDisplay:10.37,2013-09-26 22:30:00,
2013-09-26 17:40:00,82.8,65.0,29.91,ESE,109,2.0,7.0,55,0.00,CLR,CLR,0.01,0.0,WeatherDisplay:10.37,2013-09-26 22:40:00,
2013-09-26 17:50:00,82.6,65.3,29.92,ESE,110,2.0,6.0,56,0.00,CLR,CLR,0.01,0.0,WeatherDisplay:10.37,2013-09-26 22:50:00,
2013-09-26 18:00:00,82.3,66.0,29.92,ESE,102,1.0,4.0,58,0.00,CLR,CLR,0.01,0.0,WeatherDisplay:10.37,2013-09-26 23:00:00,
2013-09-26 18:10:00,81.6,65.9,29.92,ESE,105,1.0,4.0,59,0.00,CLR,CLR,0.01,0.0,WeatherDisplay:10.37,2013-09-26 23:10:00,
2013-09-26 18:20:00,81.3,66.1,29.92,East,83,0.0,2.0,60,0.00,CLR,CLR,0.01,0.0,WeatherDisplay:10.37,2013-09-26 23:20:00,
2013-09-26 18:30:00,80.6,65.9,29.92,ESE,109,0.0,2.0,61,0.00,CLR,CLR,0.01,0.0,WeatherDisplay:10.37,2013-09-26 23:30:00,
2013-09-26 18:40:00,79.4,65.3,29.92,East,95,0.0,2.0,62,0.00,CLR,CLR,0.01,0.0,WeatherDisplay:10.37,2013-09-26 23:40:00,
2013-09-26 18:50:00,78.3,65.1,29.92,ENE,75,0.0,2.0,64,0.00,CLR,CLR,0.01,0.0,WeatherDisplay:10.37,2013-09-26 23:50:00,
2013-09-26 19:00:00,77.3,65.0,29.92,ENE,75,0.0,1.0,66,0.00,CLR,CLR,0.01,0.0,WeatherDisplay:10.37,2013-09-27 00:00:00,
2013-09-26 19:10:00,76.3,65.0,29.92,ENE,75,0.0,1.0,68,0.00,CLR,CLR,0.01,0.0,WeatherDisplay:10.37,2013-09-27 00:10:00,
2013-09-26 19:20:00,75.6,65.2,29.92,ENE,75,0.0,1.0,70,0.00,CLR,CLR,0.01,0.0,WeatherDisplay:10.37,2013-09-27 00:20:00,
2013-09-26 19:30:00,74.9,64.9,29.92,ENE,75,0.0,0.0,71,0.00,CLR,CLR,0.01,0.0,WeatherDisplay:10.37,2013-09-27 00:30:00,
2013-09-26 19:40:00,74.4,64.8,29.93,ENE,75,0.0,0.0,72,0.00,CLR,CLR,0.01,0.0,WeatherDisplay:10.37,2013-09-27 00:40:00,
2013-09-26 19:50:00,73.9,65.1,29.93,ENE,75,0.0,1.0,74,0.00,CLR,CLR,0.01,0.0,WeatherDisplay:10.37,2013-09-27 00:50:00,
2013-09-26 20:00:00,73.4,65.0,29.94,ENE,75,0.0,1.0,75,0.00,CLR,CLR,0.01,0.0,WeatherDisplay:10.37,2013-09-27 01:00:00,
2013-09-26 20:10:00,73.2,64.8,29.94,ENE,75,0.0,1.0,75,0.00,CLR,CLR,0.01,0.0,WeatherDisplay:10.37,2013-09-27 01:10:00,
2013-09-26 20:20:00,72.8,64.8,29.94,ENE,75,0.0,1.0,76,0.00,CLR,CLR,0.01,0.0,WeatherDisplay:10.37,2013-09-27 01:20:00,
2013-09-26 20:30:00,72.4,65.1,29.95,ENE,75,0.0,1.0,78,0.00,CLR,CLR,0.01,0.0,WeatherDisplay:10.37,2013-09-27 01:30:00,
2013-09-26 20:40:00,71.8,64.9,29.95,ENE,75,0.0,1.0,79,0.00,CLR,CLR,0.01,0.0,WeatherDisplay:10.37,2013-09-27 01:40:00,
2013-09-26 20:50:00,71.5,65.0,29.95,ENE,74,0.0,1.0,80,0.00,CLR,CLR,0.01,0.0,WeatherDisplay:10.37,2013-09-27 01:50:00,
2013-09-26 21:00:00,71.1,64.6,29.95,ENE,75,0.0,1.0,80,0.00,CLR,CLR,0.01,0.0,WeatherDisplay:10.37,2013-09-27 02:00:00,
2013-09-26 21:10:00,70.7,64.6,29.96,ENE,73,0.0,1.0,81,0.00,CLR,CLR,0.01,0.0,WeatherDisplay:10.37,2013-09-27 02:10:00,
2013-09-26 21:20:00,70.4,64.6,29.95,ENE,74,0.0,1.0,82,0.00,CLR,CLR,0.01,0.0,WeatherDisplay:10.37,2013-09-27 02:20:00,
2013-09-26 21:30:00,70.1,64.3,29.96,ENE,73,0.0,1.0,82,0.00,CLR,CLR,0.01,0.0,WeatherDisplay:10.37,2013-09-27 02:30:00,
2013-09-26 21:40:00,69.8,64.4,29.96,ENE,73,0.0,0.0,83,0.00,CLR,CLR,0.01,0.0,WeatherDisplay:10.37,2013-09-27 02:40:00,
2013-09-26 21:50:00,69.5,64.5,29.96,ENE,73,0.0,1.0,84,0.00,CLR,CLR,0.01,0.0,WeatherDisplay:10.37,2013-09-27 02:50:00,
2013-09-26 22:00:00,69.1,64.4,29.96,ENE,73,0.0,1.0,85,0.00,CLR,CLR,0.01,0.0,WeatherDisplay:10.37,2013-09-27 03:00:00,
2013-09-26 22:10:00,68.8,64.1,29.96,ENE,74,0.0,1.0,85,0.00,CLR,CLR,0.01,0.0,WeatherDisplay:10.37,2013-09-27 03:10:00,
2013-09-26 22:20:00,68.6,64.3,29.96,ENE,73,0.0,1.0,86,0.00,CLR,CLR,0.01,0.0,WeatherDisplay:10.37,2013-09-27 03:20:00,
2013-09-26 22:30:00,68.3,64.3,29.96,ENE,73,0.0,0.0,87,0.00,CLR,CLR,0.01,0.0,WeatherDisplay:10.37,2013-09-27 03:30:00,
2013-09-26 22:40:00,67.7,64.0,29.96,ENE,73,0.0,0.0,88,0.00,CLR,CLR,0.01,0.0,WeatherDisplay:10.37,2013-09-27 03:40:00,
2013-09-26 22:50:00,67.6,63.9,29.96,ENE,73,0.0,1.0,88,0.00,CLR,CLR,0.01,0.0,WeatherDisplay:10.37,2013-09-27 03:50:00,
2013-09-26 23:00:00,67.4,64.0,29.96,ENE,73,0.0,1.0,89,0.00,CLR,CLR,0.01,0.0,WeatherDisplay:10.37,2013-09-27 04:00:00,
2013-09-26 23:10:00,67.3,63.9,29.97,ENE,73,0.0,1.0,89,0.00,CLR,CLR,0.01,0.0,WeatherDisplay:10.37,2013-09-27 04:10:00,
2013-09-26 23:20:00,67.1,64.1,29.97,ENE,73,0.0,1.0,90,0.00,CLR,CLR,0.01,0.0,WeatherDisplay:10.37,2013-09-27 04:20:00,
2013-09-26 23:30:00,67.1,64.1,29.97,ENE,74,0.0,0.0,90,0.00,CLR,CLR,0.01,0.0,WeatherDisplay:10.37,2013-09-27 04:30:00,
2013-09-26 23:40:00,66.8,63.8,29.97,ENE,73,0.0,0.0,90,0.00,CLR,CLR,0.01,0.0,WeatherDisplay:10.37,2013-09-27 04:40:00,
2013-09-26 23:50:00,66.5,63.8,29.97,ENE,73,0.0,0.0,91,0.00,CLR,CLR,0.01,0.0,WeatherDisplay:10.37,2013-09-27 04:50:00,